Weather History for Pensacola NAS, FL

Change the Weather History Date:

Thursday, December 20, 2012

  Actual Average Record
Temperature  
Mean Temperature 60 °F -  
Max Temperature 73 °F 59 °F 73 °F (1998)
Min Temperature 46 °F 40 °F 19 °F (1996)
Degree Days  
Heating Degree Days 6    
Growing Degree Days 10 (Base 50)    
Moisture  
Dew Point 61 °F    
Average Humidity 83    
Maximum Humidity 100    
Minimum Humidity 31    
Precipitation  
Precipitation 0.36 in - - ()
Sea Level Pressure  
Sea Level Pressure 29.91 in    
Wind  
Wind Speed 16 mph (SW)    
Max Wind Speed 26 mph    
Max Gust Speed 40 mph    
Visibility 7 miles    
Events Rain    
Averages and records for this station are not official NWS values.
T = Trace of Precipitation, MM = Missing Value Source: NWS Daily Summary

Daily Weather History Graph

Daily Weather History Graph

Search for Another Location

Airport:

Trip Planner

Search our weather history database for the weather conditions in past years. The results will help you decide how hot, cold, wet, or windy it might be!

Date:

Astronomy

Dec. 20, 2012 Rise Set
Actual Time 6:41 AM CST 4:52 PM CST
Civil Twilight 6:15 AM CST 5:19 PM CST
Nautical Twilight 5:45 AM CST 5:49 PM CST
Astronomical Twilight 5:15 AM CST 6:18 PM CST
Moon 11:50 AM CST (12/20) No Moon Set
Length of Visible Light 11h 04m
Length of Day
10h 11m
First Quarter, 55% of the Moon is Illuminated
Dec 20
First Quarter
Dec 28
Full
Jan 4
Last Quarter
Jan 11
New
Jan 18
First Quarter

Hourly Weather History & Observations

Time (CST) Temp. Windchill Dew Point Humidity Pressure Visibility Wind Dir Wind Speed Gust Speed Precip Events Conditions
12:56 AM 69.1 °F - 66.9 °F 93% 29.94 in 10.0 mi SSE 13.8 mph - N/A   Overcast
1:56 AM 69.1 °F - 66.9 °F 93% 29.94 in 10.0 mi South 11.5 mph - N/A   Overcast
2:56 AM 69.1 °F - 68.0 °F 96% 29.92 in 9.0 mi South 11.5 mph - N/A   Overcast
3:33 AM 69.8 °F - 68.0 °F 94% 29.91 in 9.0 mi South 12.7 mph - N/A   Overcast
3:56 AM 70.0 °F - 68.0 °F 93% 29.92 in 9.0 mi South 11.5 mph - N/A   Overcast
4:05 AM 69.8 °F - 68.0 °F 94% 29.91 in 9.0 mi South 13.8 mph - N/A   Overcast
4:56 AM 70.0 °F - 69.1 °F 97% 29.91 in 9.0 mi South 17.3 mph - N/A   Overcast
5:56 AM 70.0 °F - 69.1 °F 97% 29.90 in 8.0 mi South 17.3 mph - N/A   Mostly Cloudy
6:12 AM 69.8 °F - 69.8 °F 100% 29.89 in 8.0 mi South 16.1 mph 25.3 mph N/A   Mostly Cloudy
6:56 AM 70.0 °F - 69.1 °F 97% 29.89 in 8.0 mi South 18.4 mph - N/A   Overcast
7:24 AM 69.8 °F - 69.8 °F 100% 29.88 in 7.0 mi South 17.3 mph - N/A   Overcast
7:38 AM 71.6 °F - 69.8 °F 94% 29.88 in 7.0 mi South 19.6 mph - N/A   Overcast
7:56 AM 71.1 °F - 69.1 °F 93% 29.88 in 5.0 mi South 20.7 mph 26.5 mph 0.00 in Rain Light Rain
8:01 AM 71.6 °F - 69.8 °F 94% 29.87 in 4.0 mi South 19.6 mph 26.5 mph 0.00 in Rain Light Rain
8:10 AM 69.8 °F - 69.8 °F 100% 29.87 in 1.5 mi South 19.6 mph 26.5 mph 0.02 in Rain Rain
8:14 AM 69.8 °F - 69.8 °F 100% 29.87 in 3.0 mi South 19.6 mph 27.6 mph 0.02 in Rain Rain
8:26 AM 71.6 °F - 69.8 °F 94% 29.87 in 7.0 mi South 19.6 mph - 0.02 in   Overcast
8:43 AM 71.6 °F - 69.8 °F 94% 29.87 in 4.0 mi South 19.6 mph - 0.02 in Rain Rain
8:56 AM 71.1 °F - 70.0 °F 96% 29.88 in 4.0 mi SW 23.0 mph 29.9 mph 0.02 in Rain Rain
9:03 AM 71.6 °F - 71.6 °F 100% 29.87 in 0.8 mi South 26.5 mph 36.8 mph 0.04 in Rain Heavy Rain
9:05 AM 71.6 °F - 71.6 °F 100% 29.86 in 2.0 mi South 23.0 mph 36.8 mph 0.04 in Rain Heavy Rain
9:22 AM 71.6 °F - 71.6 °F 100% 29.86 in 6.0 mi SSW 24.2 mph 32.2 mph 0.04 in Rain Light Rain
9:43 AM 73.4 °F - 71.6 °F 94% 29.86 in 9.0 mi SW 21.9 mph 28.8 mph 0.04 in   Mostly Cloudy
9:53 AM 71.6 °F - 71.6 °F 100% 29.87 in 1.0 mi SSW 19.6 mph 27.6 mph 0.07 in Rain Rain
9:56 AM 72.0 °F - 71.1 °F 97% 29.87 in 1.0 mi SSW 24.2 mph 31.1 mph 0.08 in Rain Heavy Rain
10:01 AM 71.6 °F - 71.6 °F 100% 29.85 in 1.0 mi SW 12.7 mph 31.1 mph 0.01 in Rain Rain
10:12 AM 71.6 °F - 69.8 °F 94% 29.84 in 1.0 mi WSW 15.0 mph 25.3 mph 0.11 in Rain Heavy Rain
10:23 AM 71.6 °F - 71.6 °F 100% 29.85 in 3.0 mi WSW 15.0 mph 26.5 mph 0.26 in Rain Rain
10:34 AM 71.6 °F - 71.6 °F 100% 29.85 in 5.0 mi SSW 16.1 mph 33.4 mph 0.26 in   Overcast
10:56 AM 72.0 °F - 70.0 °F 93% 29.84 in 7.0 mi SW 18.4 mph - 0.26 in   Overcast
11:04 AM 73.4 °F - 71.6 °F 94% 29.82 in 8.0 mi SW 18.4 mph 25.3 mph N/A   Mostly Cloudy
11:17 AM 73.4 °F - 69.8 °F 88% 29.82 in 8.0 mi SW 18.4 mph 25.3 mph N/A   Overcast
11:22 AM 71.6 °F - 69.8 °F 94% 29.83 in 6.0 mi SW 21.9 mph 40.3 mph 0.00 in Rain Light Rain
11:34 AM 71.6 °F - 69.8 °F 94% 29.83 in 10.0 mi West 11.5 mph 34.5 mph 0.00 in   Mostly Cloudy
11:38 AM 69.8 °F - 66.2 °F 88% 29.83 in 10.0 mi WNW 12.7 mph 26.5 mph 0.00 in   Mostly Cloudy
11:48 AM 68.0 °F - 60.8 °F 78% 29.83 in 10.0 mi NW 15.0 mph 23.0 mph 0.00 in   Mostly Cloudy
11:56 AM 68.0 °F - 59.0 °F 73% 29.83 in 10.0 mi NW 10.4 mph 24.2 mph 0.00 in   Mostly Cloudy
12:56 PM 66.0 °F - 46.0 °F 48% 29.83 in 10.0 mi NW 12.7 mph 21.9 mph N/A   Mostly Cloudy
1:56 PM 66.0 °F - 45.0 °F 47% 29.84 in 10.0 mi NW 12.7 mph 21.9 mph N/A   Mostly Cloudy
2:56 PM 64.9 °F - 43.0 °F 45% 29.86 in 10.0 mi WNW 9.2 mph 20.7 mph N/A   Mostly Cloudy
3:56 PM 64.0 °F - 33.1 °F 31% 29.90 in 10.0 mi WNW 13.8 mph 23.0 mph N/A   Mostly Cloudy
4:56 PM 60.1 °F - 33.1 °F 36% 29.95 in 10.0 mi NW 12.7 mph 23.0 mph N/A   Mostly Cloudy
5:56 PM 55.9 °F - 30.9 °F 39% 30.01 in 10.0 mi NW 9.2 mph - N/A   Scattered Clouds
6:56 PM 53.1 °F - 33.1 °F 47% 30.07 in 10.0 mi NW 9.2 mph 16.1 mph N/A   Partly Cloudy
7:56 PM 51.1 °F - 32.0 °F 48% 30.11 in 10.0 mi NW 9.2 mph 17.3 mph N/A   Clear
8:56 PM 50.0 °F - 32.0 °F 50% 30.15 in 10.0 mi NW 11.5 mph 23.0 mph N/A   Clear
9:56 PM 48.9 °F - 30.9 °F 50% 30.18 in 10.0 mi NW 9.2 mph - N/A   Clear
10:56 PM 46.9 °F - 32.0 °F 56% 30.20 in 10.0 mi NW 8.1 mph - N/A   Clear
11:56 PM 46.0 °F 41.9 °F 30.0 °F 54% 30.20 in 10.0 mi NW 8.1 mph 18.4 mph N/A   Clear